Theta_e
292 293 293 292 293 293 292 292 292 293 294 295 295 295 294 294 293 292 291 290 289 289 289 289 288 289 288 288 289 289 289 292 286 284 285 284 281 280 281 281 281 279 280
291 291 291 290 291 290 289 289 290 289 290 291 291 290 290 290 289 289 287 287 287 286 287 287 286 287 285 285 285 283 284 286 287 281 281 279 278 279 279 279 281 282 279
290 290 290 289 288 287 287 288 288 288 287 287 288 288 287 288 287 287 287 286 286 285 284 283 283 283 282 282 282 282 282 283 282 281 278 278 278 278 279 279 279 279 281
289 287 286 287 287 287 287 287 287 287 286 286 286 286 286 286 286 286 286 285 284 283 282 282 282 281 280 280 280 280 281 280 280 279 278 277 277 278 278 276 275 277 277
285 284 284 285 286 285 286 286 286 286 286 287 286 285 286 286 285 284 284 283 281 281 281 281 282 282 284 283 280 279 279 279 279 278 277 276 275 276 275 276 275 275 275
283 282 283 283 283 283 284 284 285 285 286 285 284 284 284 284 287 286 283 281 280 280 278 278 279 280 282 283 283 284 282 278 277 277 276 275 275 275 275 275 274 272 270
281 281 281 281 281 281 282 283 283 283 284 284 283 283 282 283 286 285 284 280 279 278 278 278 278 279 279 278 281 281 281 282 281 277 275 274 274 275 275 274 273 272 272
280 280 280 281 281 281 282 281 281 281 281 281 280 280 280 282 285 284 283 280 279 279 279 279 278 278 279 278 277 277 277 277 277 277 275 275 274 275 275 274 273 272 272
279 279 280 280 280 280 279 279 279 279 279 279 280 279 279 279 283 283 281 279 279 278 279 279 279 278 280 281 278 277 276 276 279 278 277 277 276 276 276 273 264 263 262
279 279 279 280 280 278 278 279 279 279 279 280 280 279 279 278 282 282 280 280 278 278 279 280 280 279 281 280 276 276 275 275 275 274 274 274 275 274 275 273 271 262 262
279 279 279 279 279 278 278 278 278 278 278 277 278 278 278 279 280 282 281 279 279 278 278 278 278 280 280 279 278 276 276 275 273 271 271 271 272 272 272 272 272 269 263
277 277 276 276 278 278 277 277 277 276 275 274 274 275 276 278 280 281 280 280 280 278 277 277 277 279 279 278 277 277 276 273 266 265 265 267 268 269 269 268 267 267 268
274 272 272 274 277 277 275 275 274 274 274 274 274 273 273 276 277 281 280 279 278 277 277 277 278 278 278 276 277 276 271 266 265 263 265 268 269 268 265 263 263 262 264
270 270 271 271 272 272 276 276 274 273 273 274 273 272 271 272 273 275 276 275 277 276 276 274 276 276 278 276 271 273 270 269 267 265 265 266 265 262 261 263 261 261 260
276 274 274 274 273 273 274 274 275 275 276 271 271 272 270 269 273 277 275 272 270 274 266 266 267 268 267 268 268 268 267 266 264 263 263 263 263 263 264 262 261 258 259
275 275 275 275 275 275 273 272 278 278 279 280 280 276 274 278 277 279 279 279 279 279 265 265 266 268 269 268 266 266 266 266 266 265 262 262 264 264 264 262 262 258 263
276 275 275 275 275 274 269 270 269 272 279 279 279 279 279 278 278 278 278 279 279 279 265 265 267 269 269 268 267 266 265 265 263 262 261 262 263 263 261 263 262 261 264
270 273 272 271 271 270 269 269 267 267 266 266 275 278 280 280 280 280 279 278 267 270 264 266 268 269 274 269 266 265 264 262 261 262 262 262 262 262 260 261 261 261 264
269 268 269 269 269 269 268 267 267 265 264 264 264 271 271 279 280 280 281 271 269 267 267 266 268 268 267 265 265 264 262 262 262 261 260 261 261 257 262 261 262 261 260
268 268 269 269 267 267 267 267 265 265 264 264 265 265 261 261 261 262 263 263 262 265 266 269 270 271 269 267 265 263 262 260 261 262 263 261 262 260 263 263 259 260 261
270 269 268 267 268 267 266 267 265 265 265 265 266 264 273 264 263 262 264 265 267 267 267 266 265 265 264 263 263 262 262 264 263 263 262 261 259 258 260 261 262 257 259
265 265 265 266 263 265 266 266 266 265 264 264 263 263 276 265 264 263 263 264 264 264 264 264 263 263 264 264 263 263 263 264 262 262 262 262 260 260 259 259 259 258 257
265 266 265 262 263 263 262 261 263 264 264 264 264 264 262 264 263 263 265 265 264 264 263 262 262 262 262 262 261 263 264 265 265 262 263 262 261 260 260 261 261 255 254
262 263 263 263 263 264 264 264 264 264 264 264 263 263 263 263 263 264 263 262 260 260 259 261 262 262 260 261 261 262 265 265 263 264 262 260 261 259 259 259 261 256 256
261 262 263 264 263 264 261 262 263 263 263 263 263 262 261 262 262 261 261 260 260 259 260 259 259 259 260 259 261 260 262 267 266 264 261 259 260 259 257 257 257 254 253
260 261 262 262 262 261 262 262 262 262 262 262 262 261 261 261 261 260 260 259 259 259 258 258 259 259 259 260 261 262 263 265 264 264 263 262 261 261 260 259 257 254 257
Wind_Speed
9 8 7 7 8 7 7 7 7 7 7 8 8 9 8 8 9 9 9 8 10 8 8 8 8 7 6 6 5 5 5 4 5 2 2 2 3 4 3 2 1 1 1
6 7 6 7 8 8 7 7 7 8 7 8 8 8 9 9 9 9 9 8 9 9 8 8 8 6 7 6 5 7 5 5 4 5 2 1 4 2 2 2 2 3 3
7 6 6 7 7 7 7 7 7 7 7 8 9 10 9 9 9 9 9 10 10 10 9 9 8 7 7 5 5 5 5 6 5 4 3 1 2 2 2 2 3 4 4
6 6 6 6 7 7 7 7 8 7 8 8 9 9 9 9 8 9 9 11 11 11 10 10 10 9 6 6 7 6 5 5 5 5 4 2 2 2 2 3 4 3 5
6 5 5 6 6 6 6 7 7 8 8 7 9 10 9 8 6 7 8 9 10 10 10 10 10 11 19 14 5 6 6 4 4 4 3 2 2 3 3 3 3 5 3
5 5 5 6 5 5 6 6 7 7 8 8 9 9 9 7 14 14 9 8 8 8 8 7 6 7 12 17 17 18 11 4 4 2 2 3 2 2 3 3 3 3 4
6 4 5 5 6 6 6 6 7 7 7 8 8 8 8 7 14 15 13 7 8 7 6 6 6 5 6 6 11 13 13 14 11 4 3 3 3 3 3 2 2 2 3
5 5 4 5 6 5 6 6 6 5 6 6 6 6 6 8 13 14 14 8 8 7 6 6 6 5 6 5 4 5 5 5 6 5 5 4 2 3 3 3 4 4 6
5 4 4 5 5 6 6 6 5 5 6 5 5 6 6 6 11 11 8 6 7 6 5 5 6 5 7 6 3 4 4 4 5 6 4 3 4 5 5 2 3 3 4
5 5 5 5 5 5 5 5 4 5 5 4 6 6 6 5 9 9 7 3 5 4 3 5 7 4 7 8 4 3 3 2 3 3 3 3 2 2 2 2 1 1 1
5 5 5 5 6 5 5 3 4 5 5 4 5 4 5 5 5 6 6 3 3 2 2 2 2 4 4 4 4 3 2 2 2 1 3 2 1 1 0 1 1 1 1
5 4 5 4 4 4 5 3 4 4 4 3 3 1 2 3 4 5 4 4 2 2 2 2 2 2 1 1 2 1 1 2 1 2 2 3 1 1 0 1 2 3 4
5 4 3 3 3 3 4 5 3 3 3 3 2 1 1 0 2 4 4 3 3 2 2 3 3 2 3 2 4 4 1 1 1 1 2 3 2 1 1 3 4 4 6
4 4 3 4 3 2 2 2 3 3 2 3 2 2 2 2 2 2 1 1 2 1 2 1 2 4 5 5 1 4 2 2 2 2 2 3 2 1 2 2 2 2 3
5 4 4 3 4 3 3 3 2 2 4 3 3 3 3 3 4 7 6 3 2 4 3 2 1 2 2 2 3 3 2 2 1 2 2 3 3 2 3 2 2 1 2
6 5 5 4 3 3 3 2 7 8 7 8 7 4 2 5 3 6 9 10 9 8 3 2 3 3 3 3 3 3 2 4 4 3 3 3 3 4 4 2 2 2 6
7 7 5 5 4 5 3 3 3 4 11 10 11 11 11 9 7 9 9 10 11 10 3 3 3 3 4 4 3 3 3 3 3 3 3 3 4 3 3 4 3 3 7
4 7 5 4 4 4 4 4 3 3 3 3 9 11 12 12 11 11 10 10 2 6 2 4 4 4 4 4 4 4 3 3 3 4 4 4 4 4 3 4 4 5 7
5 3 4 3 4 4 4 4 4 3 3 3 1 4 4 12 12 14 15 5 5 5 4 4 5 4 4 4 4 4 4 4 4 3 4 4 4 3 5 5 5 7 6
5 6 5 4 3 4 4 4 3 3 3 4 4 4 1 2 1 3 3 2 3 4 3 4 4 6 5 5 4 4 4 3 4 4 5 5 5 4 6 7 5 6 6
6 6 6 4 5 4 4 5 3 4 5 5 5 4 10 5 4 4 4 5 6 5 5 5 4 4 4 4 4 4 4 5 5 5 5 5 4 4 5 5 6 4 5
3 3 4 5 3 4 4 4 5 4 4 4 4 4 15 3 5 5 4 5 5 5 5 5 4 4 5 5 5 5 6 7 5 5 6 5 5 5 4 5 5 4 4
4 4 4 3 3 3 3 3 4 5 5 5 4 4 4 5 5 5 7 7 5 5 4 4 5 5 4 5 4 5 7 8 6 5 6 5 5 4 4 6 5 3 3
3 4 4 4 4 4 5 5 5 6 5 5 5 5 5 5 6 7 6 5 4 4 4 5 5 7 5 6 5 5 7 7 4 6 7 5 5 4 4 4 5 4 3
4 4 4 4 4 4 4 4 5 5 5 5 6 5 5 5 5 5 5 4 5 5 6 5 4 7 9 10 10 9 8 13 9 6 5 5 7 6 4 4 4 3 3
3 4 4 3 4 4 4 4 5 5 5 5 5 5 5 5 5 5 5 5 5 5 6 4 6 10 10 9 11 12 12 13 12 11 6 6 6 6 5 6 5 4 5
Wind_Direction
27 35 36 36 44 44 47 45 50 50 46 57 63 65 64 67 72 81 78 76 79 70 59 62 54 41 48 45 16 41 34 37 99 93 85 163 49 56 15 355 313 23 18
39 37 47 44 54 46 46 50 52 56 50 63 67 73 71 65 67 75 83 76 76 73 63 63 57 54 50 43 40 39 36 22 103 117 141 95 69 8 344 18 342 337 332
44 45 54 57 62 61 52 49 57 66 65 63 71 71 72 73 77 76 81 81 73 67 58 56 48 49 54 46 45 48 39 47 50 107 119 68 83 16 340 351 350 351 337
74 65 58 57 65 67 61 59 59 66 73 73 72 75 73 73 76 81 83 81 77 72 66 59 53 51 46 51 50 44 52 61 68 85 87 98 85 2 36 5 342 327 323
88 91 75 67 66 63 65 64 66 65 65 68 75 70 71 74 74 78 84 88 89 85 77 69 58 60 63 60 58 34 45 56 70 74 77 75 36 18 21 332 325 327 327
92 92 86 82 82 76 77 73 67 67 69 75 72 73 70 72 85 90 87 90 88 91 88 75 66 61 66 69 65 63 60 55 56 80 42 71 62 27 0 355 346 353 335
96 91 99 99 89 85 79 78 74 73 69 74 77 80 77 77 84 86 84 81 86 84 89 91 75 53 52 59 67 67 54 58 61 68 106 55 56 19 350 342 349 340 273
91 98 103 101 94 85 80 75 73 74 74 80 82 80 85 82 85 89 86 82 82 76 78 90 90 68 56 64 77 81 75 59 50 49 56 60 78 24 18 359 329 318 288
99 87 79 92 96 93 84 85 84 82 72 69 83 87 82 76 84 89 88 85 84 78 69 71 83 74 65 66 82 81 91 71 63 49 48 33 32 21 20 32 350 21 321
120 102 84 85 90 91 92 86 68 75 84 85 82 79 99 92 86 87 90 90 101 92 80 76 103 91 72 47 47 43 68 59 31 355 346 344 1 347 357 39 36 70 291
115 113 99 89 92 95 92 84 94 86 81 71 79 69 68 83 90 87 90 96 116 122 124 122 82 87 73 48 45 57 69 50 323 303 288 293 306 308 320 100 334 180 209
115 98 92 87 99 107 104 77 82 93 88 68 79 72 59 58 101 88 86 102 124 131 154 134 136 161 144 31 31 0 307 349 348 327 337 318 306 294 300 352 271 245 242
117 123 118 100 101 123 125 131 115 126 136 158 169 167 172 27 14 121 119 112 90 104 122 156 178 208 241 275 268 284 94 323 293 343 286 269 226 208 280 312 288 272 261
136 149 148 134 131 117 120 153 150 157 165 168 180 200 195 195 211 189 178 154 234 145 171 147 222 240 256 251 257 290 182 221 205 235 253 273 301 333 279 235 267 283 304
164 167 174 177 177 171 182 177 186 207 176 174 207 187 176 225 230 214 203 196 193 214 119 53 355 275 271 274 267 237 217 196 223 241 247 259 269 276 266 254 242 289 223
176 182 189 184 186 183 184 248 243 229 227 235 234 194 242 215 215 230 231 229 230 227 93 188 249 240 241 235 242 260 224 220 230 230 240 233 256 260 271 281 242 218 274
193 183 187 192 189 192 190 190 218 265 235 237 238 236 233 228 242 244 242 243 240 234 192 218 215 211 232 238 231 222 233 227 207 206 215 242 252 259 262 276 261 246 279
185 185 180 179 186 186 192 202 187 185 212 256 248 240 243 242 241 241 246 253 287 270 187 209 223 231 246 229 227 228 234 233 216 222 233 235 238 244 265 268 264 270 287
189 194 187 179 184 188 182 190 197 198 215 224 332 264 289 249 252 252 247 213 215 225 226 230 220 223 220 216 226 229 212 219 221 224 236 232 237 212 262 260 267 273 274
190 188 180 187 183 187 191 190 200 206 215 218 222 226 225 79 244 252 251 239 228 233 224 229 220 222 216 212 217 220 230 234 234 236 245 239 243 221 249 260 249 264 271
195 193 183 182 189 190 184 205 197 201 216 223 230 217 219 194 224 225 231 231 235 236 235 232 228 223 221 219 218 222 225 237 231 235 235 235 220 232 233 243 260 244 256
166 171 176 196 177 187 198 195 203 211 217 225 244 238 250 230 211 226 237 240 233 228 223 219 227 223 219 216 217 222 234 243 236 229 242 239 232 236 237 242 248 243 250
177 174 168 179 187 185 193 199 201 208 219 225 222 226 223 234 224 224 233 237 230 232 229 220 229 242 237 232 217 215 230 245 244 211 238 237 242 234 224 245 250 235 244
177 174 180 187 183 197 200 208 214 217 223 228 227 227 224 223 228 236 238 241 242 242 229 225 226 233 235 240 236 231 241 251 232 229 221 226 243 229 231 241 250 237 244
179 184 190 195 196 203 207 215 220 219 220 221 232 231 231 229 233 236 236 233 236 236 242 238 234 240 243 243 243 238 239 253 250 219 215 210 232 226 219 227 235 228 233
198 192 198 195 205 200 201 213 225 224 230 231 228 228 226 229 235 236 239 239 244 248 251 243 244 245 248 251 248 246 245 247 245 243 224 216 227 231 225 232 230 210 225